Location: Audinghen
(50.8518°N, 1.6129°E)
Time: 17:22:20
(UTC+00:00)

Cosmos 2233 Rocket - Pass Details

Date: 07 August 2020
Orbit: 952 x 991 km, 82.9° (Epoch: 24 September)

Event Time Altitude Azimuth Distance (km) Brightness Sun altitude
Exits shadow 00:10:39 37° 222° (SW) 1,490 4.6 -22.8°
Maximum altitude 00:13:04 60° 284° (WNW) 1,130 4.3 -22.7°
Drops below altitude 10° 00:19:21 10° 4° (N) 2,768 7.5 -22.7°
Sets 00:21:57 0° 9° (N) 3,720 8.5 -22.6°
